Fort Stewart, GA

6:28 PM EST on February 24, 2017 (GMT -0500)
Wright Army Air Field

Weather History for KLHW - October, 2012

Change the Weather History Date:

Wednesday, October 10, 2012

  Actual Average Record
Temperature  
Mean Temperature 65 °F -  
Max Temperature 78 °F 79 °F 92 °F (1982)
Min Temperature 53 °F 60 °F 37 °F (2000)
Growing Degree Days 15 (Base 50)    
Moisture  
Dew Point 58 °F    
Average Humidity 94    
Maximum Humidity 100    
Minimum Humidity 50    
Precipitation  
Precipitation 0.00 in - - ()
Sea Level Pressure  
Sea Level Pressure 30.11 in    
Wind  
Wind Speed 3 mph (NW)    
Max Wind Speed 10 mph    
Max Gust Speed -    
Visibility 4 miles    
Events Fog    
Averages and records for this station are not official NWS values.
T = Trace of Precipitation, MM = Missing Value Source: NWS Daily Summary

Daily Weather History Graph

Daily Weather History Graph

Search for Another Location

Airport or City:

Trip Planner

Search our weather history database for the weather conditions in past years. The results will help you decide how hot, cold, wet, or windy it might be!

Date:

Astronomy

Oct. 10, 2012 Rise Set
Actual Time 7:26 AM EDT 6:59 PM EDT
Civil Twilight 7:01 AM EDT 7:23 PM EDT
Nautical Twilight 6:33 AM EDT 7:52 PM EDT
Astronomical Twilight 6:05 AM EDT 8:20 PM EDT
Moon 2:19 AM EDT (10/10) 3:45 PM EDT (10/10)
Length of Visible Light 12h 21m
Length of Day
11h 32m
Waning Crescent, 27% of the Moon is Illuminated
Oct 10
Waning Crescent
Oct 15
New
Oct 21
First Quarter
Oct 29
Full
Nov 6
Last Quarter

Hourly Weather History & Observations

Time (EDT) Temp. Dew Point Humidity Pressure Visibility Wind Dir Wind Speed Gust Speed Precip Events Conditions
12:55 AM 56.3 °F 55.8 °F 98% 30.11 in 9.0 mi Calm Calm - N/A   Clear
1:55 AM 55.6 °F 55.2 °F 99% 30.11 in 9.0 mi Calm Calm - N/A   Clear
2:54 AM 53.6 °F 53.6 °F 100% 30.10 in 10.0 mi North 6.9 mph - N/A   Partly Cloudy
2:55 AM 53.6 °F 53.2 °F 99% 30.10 in 10.0 mi North 6.9 mph - N/A   Partly Cloudy
3:05 AM 55.4 °F 55.4 °F 100% 30.09 in 7.0 mi North 3.5 mph - N/A   Scattered Clouds
3:10 AM 55.4 °F 55.4 °F 100% 30.09 in 6.0 mi North 3.5 mph - N/A   Mostly Cloudy
3:17 AM 55.4 °F 55.4 °F 100% 30.09 in 2.5 mi North 3.5 mph - N/A   Mostly Cloudy
3:20 AM 55.4 °F 55.4 °F 100% 30.10 in 2.0 mi North 4.6 mph - N/A   Mostly Cloudy
3:21 AM 55.4 °F 55.4 °F 100% 30.10 in 1.8 mi NNW 4.6 mph - N/A   Overcast
3:22 AM 55.4 °F 55.4 °F 100% 30.09 in 1.5 mi NNW 4.6 mph - N/A   Overcast
3:25 AM 55.4 °F 55.4 °F 100% 30.09 in 1.2 mi NNW 4.6 mph - N/A   Overcast
3:31 AM 57.2 °F 57.2 °F 100% 30.09 in 1.5 mi North 3.5 mph - N/A   Overcast
3:38 AM 57.2 °F 57.2 °F 100% 30.09 in 1.2 mi NNW 3.5 mph - N/A   Overcast
3:48 AM 57.2 °F 57.2 °F 100% 30.10 in 1.5 mi NNW 4.6 mph - N/A   Overcast
3:50 AM 57.2 °F 57.2 °F 100% 30.10 in 1.8 mi NNW 3.5 mph - N/A   Overcast
3:52 AM 57.2 °F 57.2 °F 100% 30.09 in 2.0 mi NNW 3.5 mph - N/A   Overcast
3:55 AM 57.2 °F 57.2 °F 100% 30.09 in 2.5 mi NNW 3.5 mph - N/A   Overcast
3:56 AM 57.2 °F 57.2 °F 100% 30.09 in 3.0 mi NNW 3.5 mph - N/A   Overcast
4:23 AM 59.0 °F 59.0 °F 100% 30.09 in 3.0 mi North 3.5 mph - N/A   Overcast
4:27 AM 59.0 °F 59.0 °F 100% 30.09 in 2.5 mi Calm Calm - N/A   Overcast
4:34 AM 59.0 °F 59.0 °F 100% 30.09 in 3.0 mi Calm Calm - N/A   Overcast
4:55 AM 58.3 °F 58.3 °F 100% 30.09 in 4.0 mi Calm Calm - N/A   Overcast
4:56 AM 59.0 °F 59.0 °F 100% 30.09 in 4.0 mi Calm Calm - N/A   Overcast
5:08 AM 57.2 °F 57.2 °F 100% 30.09 in 5.0 mi Calm Calm - N/A   Overcast
5:15 AM 57.2 °F 57.2 °F 100% 30.09 in 5.0 mi Calm Calm - N/A   Overcast
5:20 AM 59.0 °F 59.0 °F 100% 30.09 in 6.0 mi Calm Calm - N/A   Overcast
5:28 AM 59.0 °F 59.0 °F 100% 30.10 in 6.0 mi Calm Calm - N/A   Overcast
5:48 AM 59.0 °F 59.0 °F 100% 30.10 in 2.5 mi Calm Calm - N/A   Overcast
5:49 AM 59.0 °F 59.0 °F 100% 30.10 in 2.0 mi NNW 3.5 mph - N/A   Overcast
5:50 AM 59.0 °F 59.0 °F 100% 30.10 in 1.8 mi NNW 3.5 mph - N/A   Overcast
5:51 AM 59.0 °F 59.0 °F 100% 30.10 in 1.5 mi NNW 5.8 mph - N/A   Overcast
5:52 AM 59.0 °F 59.0 °F 100% 30.10 in 1.2 mi NNW 5.8 mph - N/A   Overcast
5:54 AM 59.0 °F 59.0 °F 100% 30.10 in 1.0 mi NW 4.6 mph - N/A   Mist
5:55 AM 58.1 °F 58.1 °F 100% 30.10 in 1.0 mi NNW 4.6 mph - N/A   Mist
5:58 AM 59.0 °F 59.0 °F 100% 30.10 in 0.8 mi NNW 3.5 mph - N/A   Mist
6:26 AM 57.2 °F 57.2 °F 100% 30.11 in 0.5 mi North 3.5 mph - N/A Fog Fog
6:34 AM 57.2 °F 57.2 °F 100% 30.11 in 0.8 mi NW 3.5 mph - N/A   Mist
6:55 AM 57.6 °F 57.6 °F 100% 30.11 in 0.8 mi Calm Calm - N/A   Mist
7:08 AM 57.2 °F 57.2 °F 100% 30.11 in 0.5 mi Calm Calm - N/A Fog Fog
7:51 AM 57.2 °F 57.2 °F 100% 30.12 in 0.2 mi Calm Calm - N/A Fog Fog
7:55 AM 57.6 °F 57.6 °F 100% 30.13 in 0.5 mi NW 3.5 mph - N/A Fog Fog
8:20 AM 57.2 °F 57.2 °F 100% 30.14 in 0.8 mi WNW 3.5 mph - N/A   Mist
8:34 AM 59.0 °F 59.0 °F 100% 30.14 in 0.8 mi WNW 5.8 mph - N/A   Mist
8:44 AM 57.2 °F 57.2 °F 100% 30.15 in 0.8 mi WNW 4.6 mph - N/A   Mist
8:48 AM 57.2 °F 57.2 °F 100% 30.15 in 0.8 mi WNW 4.6 mph - N/A   Mist
8:49 AM 57.2 °F 57.2 °F 100% 30.15 in 0.8 mi West 4.6 mph - N/A   Mist
8:51 AM 57.2 °F 57.2 °F 100% 30.15 in 1.0 mi West 3.5 mph - N/A   Mist
8:55 AM 57.9 °F 57.9 °F 100% 30.15 in 1.0 mi West 3.5 mph - N/A   Mist
8:57 AM 57.2 °F 57.2 °F 100% 30.15 in 1.2 mi NW 3.5 mph - N/A   Overcast
9:08 AM 59.0 °F 59.0 °F 100% 30.15 in 1.5 mi WNW 5.8 mph - N/A   Overcast
9:10 AM 57.2 °F 57.2 °F 100% 30.16 in 1.8 mi WNW 5.8 mph - N/A   Overcast
9:12 AM 57.2 °F 57.2 °F 100% 30.15 in 2.0 mi West 5.8 mph - N/A   Overcast
9:34 AM 59.0 °F 59.0 °F 100% 30.15 in 1.8 mi North 3.5 mph - N/A   Overcast
9:50 AM 59.0 °F 59.0 °F 100% 30.16 in 2.0 mi NNW 4.6 mph - N/A   Overcast
9:53 AM 59.0 °F 59.0 °F 100% 30.16 in 3.0 mi NNW 5.8 mph - N/A   Overcast
9:55 AM 58.6 °F 58.6 °F 100% 30.16 in 4.0 mi NNW 4.6 mph - N/A   Overcast
10:55 AM 59.5 °F 59.5 °F 100% 30.17 in 6.0 mi North 3.5 mph - N/A   Overcast
12:13 PM 62.6 °F 59.0 °F 88% 30.16 in 10.0 mi WNW 5.8 mph - N/A   Overcast
12:27 PM 66.2 °F 59.0 °F 78% 30.15 in 10.0 mi West 6.9 mph - N/A   Mostly Cloudy
12:42 PM 68.0 °F 59.0 °F 73% 30.15 in 10.0 mi West 8.1 mph - N/A   Mostly Cloudy
12:55 PM 69.6 °F 59.2 °F 69% 30.14 in 10.0 mi Variable 5.8 mph - N/A   Mostly Cloudy
1:07 PM 69.8 °F 59.0 °F 68% 30.13 in 10.0 mi Variable 4.6 mph - N/A   Scattered Clouds
1:55 PM 73.2 °F 57.9 °F 59% 30.10 in 10.0 mi West 8.1 mph - N/A   Clear
2:55 PM 76.1 °F 56.8 °F 51% 30.07 in 10.0 mi West 10.4 mph - N/A   Clear
3:55 PM 77.7 °F 57.6 °F 50% 30.05 in 10.0 mi West 8.1 mph - N/A   Clear
4:55 PM 77.0 °F 57.9 °F 52% 30.04 in 10.0 mi Variable 4.6 mph - N/A   Clear
5:55 PM 77.0 °F 58.6 °F 53% 30.05 in 10.0 mi WNW 6.9 mph - N/A   Clear
6:55 PM 71.8 °F 60.1 °F 67% 30.07 in 10.0 mi NW 4.6 mph - N/A   Clear
7:55 PM 66.0 °F 61.0 °F 84% 30.09 in 10.0 mi Calm Calm - N/A   Clear
8:55 PM 63.3 °F 61.0 °F 92% 30.11 in 10.0 mi Calm Calm - N/A   Clear
9:55 PM 61.0 °F 59.5 °F 95% 30.12 in 10.0 mi Calm Calm - N/A   Clear
10:55 PM 59.4 °F 58.3 °F 96% 30.14 in 10.0 mi Calm Calm - N/A   Clear
11:55 PM 58.1 °F 57.4 °F 97% 30.14 in 10.0 mi Calm Calm - N/A   Clear